Regional Weather Roundup
Issued by NWS

Home | Current Version | Previous Version | Text Only | Print | Product List | Glossary On
Versions: 1 2 3 4 5 6 7 8 9 10 11 12 13 14 15 16 17 18 19 20 21 22 23 24 25 26 27 28 29 30 31 32 33 34 35 36 37 38 39 40 41 42 43 44 45 46 47 48 49 50
000
ASUS44 KJAN 310910
RWRMS

MISSISSIPPI HOURLY WEATHER ROUNDUP
NATIONAL WEATHER SERVICE JACKSON MS
400 AM CDT SUN AUG 31 2014

NOTE: "FAIR: INDICATES FEW OR NO CLOUDS BELOW 12,000 FEET WITH NO
SIGNIFICANT WEATHER AND/OR OBSTRUCTIONS TO VISIBILITY.

MSZ001>002-007>008-010>013-018>021-025>028-034>036-311000-
NORTHWEST MISSISSIPPI

CITY           SKY/WX    TMP DP  RH WIND       PRES   REMARKS
CLARKSDALE     CLOUDY    73  73 100 S5        30.00R
CLEVELAND      CLOUDY    74  74 100 S7        30.00S
GREENWOOD      MOCLDY    73  71  93 S7        30.03R
GREENVILLE     CLOUDY    74  72  93 S6        30.00S
GRENADA        FAIR      72  70  94 S3        30.03R
OLIVE BRANCH   CLOUDY    72 N/A N/A S10       29.99S
OXFORD         CLOUDY    72  70  94 SW7       30.04R
TUNICA         RAIN      73  72  94 S10G17    29.99R
$$

MSZ003>006-009-014>017-022>024-029>033-037>039-311000-
NORTHEAST MISSISSIPPI

CITY           SKY/WX    TMP DP  RH WIND       PRES   REMARKS
BELMONT        FAIR      71  69  95 S5        30.06S
COLUMBUS AFB   MOCLDY    72  72 100 S7        30.06S
CORINTH        CLOUDY    73  70  88 S9        30.02S
GOLDN TRIANGLE MOCLDY    72  68  88 S9        30.07R
STARKVILLE     PTSUNNY   70  70 100 CALM      30.06S
TUPELO         CLOUDY    73  71  93 S7        30.04S
$$

MSZ040-058-311000-
CENTRAL MISSISSIPPI

CITY           SKY/WX    TMP DP  RH WIND       PRES   REMARKS
JACKSON INTL   CLOUDY    74  72  93 SE12      30.04R
JACKSON HAWKNS CLOUDY    74  71  91 SE8       30.05R
MERIDIAN KEY   MOCLDY    72  71  97 CALM      30.08S
MERIDIAN NAS   MOCLDY    72  71  97 SE3       30.09R
RAYMOND        FAIR      73  68  83 S3        30.05R
VICKSBURG      CLOUDY    74  71  91 SE7       30.02R
$$

MSZ059>079-311000-
SOUTH MISSISSIPPI

CITY           SKY/WX    TMP DP  RH WIND       PRES   REMARKS
BROOKHAVEN     FAIR      72  72 100 CALM      30.08S
HATTIESBURG    CLOUDY    74  72  93 CALM      30.07S
MCCOMB         CLOUDY    72  71  97 E3        30.06S
NATCHEZ        CLOUDY    73  70  88 SE8       30.04R
PINE BELT      CLOUDY   N/A N/A N/A CALM      30.08R
$$

MSZ080>082-311000-
COASTAL MISSISSIPPI

CITY           SKY/WX    TMP DP  RH WIND       PRES   REMARKS
BILOXI         PTCLDY    83  78  86 S8        30.04S HX  94
PASCAGOULA     MOCLDY    73  73 100 CALM      30.05S FOG
GULFPORT       CLOUDY    75  74  96 CALM      30.03F
$$



USA.gov is the U.S. government's official web portal to all federal, state and local government web resources and services.